TimeCDT,TemperatureF,Dew PointF,Humidity,Sea Level PressureIn,VisibilityMPH,Wind Direction,Wind SpeedMPH,Gust SpeedMPH,PrecipitationIn,Events,Conditions,WindDirDegrees,DateUTC
12:52 AM,73.0,64.9,76,29.88,10.0,South,9.2,-,N/A,,Clear,180,2013-10-05 05:52:00
1:52 AM,73.0,64.9,76,29.87,10.0,SSE,9.2,-,N/A,,Clear,160,2013-10-05 06:52:00
2:52 AM,72.0,66.0,81,29.85,10.0,South,9.2,-,N/A,,Clear,180,2013-10-05 07:52:00
3:52 AM,72.0,66.0,81,29.83,10.0,South,9.2,-,N/A,,Clear,190,2013-10-05 08:52:00
4:52 AM,71.1,66.9,87,29.85,10.0,South,10.4,-,N/A,,Clear,190,2013-10-05 09:52:00
5:52 AM,71.1,66.9,87,29.86,8.0,SSW,6.9,-,N/A,,Scattered Clouds,200,2013-10-05 10:52:00
6:52 AM,70.0,66.9,90,29.86,7.0,South,4.6,-,N/A,,Clear,170,2013-10-05 11:52:00
7:52 AM,71.1,66.9,87,29.86,6.0,South,9.2,-,N/A,,Clear,190,2013-10-05 12:52:00
8:52 AM,72.0,68.0,87,29.87,6.0,SSW,8.1,-,N/A,,Scattered Clouds,210,2013-10-05 13:52:00
9:19 AM,71.6,68.0,88,29.88,6.0,SSW,9.2,-,N/A,Thunderstorm,Mostly Cloudy,200,2013-10-05 14:19:00
9:28 AM,71.6,68.0,88,29.88,4.0,SSW,6.9,-,0.01,Rain,Light Rain,210,2013-10-05 14:28:00
9:52 AM,71.1,69.1,93,29.87,6.0,SW,5.8,-,0.02,,Mostly Cloudy,220,2013-10-05 14:52:00
10:07 AM,71.6,69.8,94,29.88,5.0,SW,6.9,-,N/A,,Overcast,230,2013-10-05 15:07:00
10:16 AM,71.6,69.8,94,29.87,6.0,WSW,9.2,-,N/A,,Mostly Cloudy,240,2013-10-05 15:16:00
10:52 AM,73.0,68.0,84,29.86,6.0,SW,4.6,-,N/A,,Haze,220,2013-10-05 15:52:00
11:52 AM,73.0,68.0,84,29.86,8.0,SSW,4.6,-,N/A,,Overcast,210,2013-10-05 16:52:00
12:07 PM,73.4,68.0,83,29.87,7.0,SSW,3.5,-,N/A,,Overcast,210,2013-10-05 17:07:00
12:52 PM,72.0,68.0,87,29.84,7.0,WSW,6.9,-,0.00,Rain,Light Rain,240,2013-10-05 17:52:00
1:52 PM,72.0,64.9,78,29.82,10.0,West,8.1,-,0.00,,Scattered Clouds,260,2013-10-05 18:52:00
2:52 PM,73.0,64.0,73,29.79,10.0,South,12.7,21.9,N/A,,Partly Cloudy,190,2013-10-05 19:52:00
3:20 PM,71.6,62.6,73,29.80,10.0,SSW,12.7,25.3,0.01,,Mostly Cloudy,200,2013-10-05 20:20:00
3:52 PM,69.1,60.1,73,29.80,10.0,SSW,13.8,23.0,0.01,,Mostly Cloudy,210,2013-10-05 20:52:00
4:15 PM,68.0,57.2,68,29.80,10.0,SSW,16.1,21.9,N/A,,Overcast,210,2013-10-05 21:15:00
4:52 PM,66.9,57.0,70,29.80,10.0,SW,10.4,-,N/A,,Overcast,220,2013-10-05 21:52:00
5:21 PM,66.2,55.4,68,29.81,10.0,WSW,12.7,19.6,N/A,,Overcast,240,2013-10-05 22:21:00
5:38 PM,64.4,51.8,64,29.81,10.0,WSW,15.0,20.7,N/A,,Overcast,240,2013-10-05 22:38:00
5:52 PM,64.0,51.1,63,29.81,10.0,WSW,13.8,18.4,N/A,,Overcast,240,2013-10-05 22:52:00
6:52 PM,62.1,48.9,62,29.82,10.0,SW,6.9,-,N/A,,Overcast,230,2013-10-05 23:52:00
7:52 PM,61.0,48.9,64,29.82,10.0,SSW,9.2,-,N/A,,Overcast,200,2013-10-06 00:52:00
8:52 PM,57.9,46.9,67,29.85,10.0,WSW,6.9,-,N/A,,Scattered Clouds,250,2013-10-06 01:52:00
9:52 PM,53.1,46.0,77,29.84,10.0,SW,4.6,-,N/A,,Clear,230,2013-10-06 02:52:00
10:52 PM,52.0,42.1,69,29.84,10.0,West,9.2,17.3,N/A,,Clear,270,2013-10-06 03:52:00
11:52 PM,48.0,42.1,80,29.84,10.0,West,4.6,-,N/A,,Clear,270,2013-10-06 04:52:00